SL-14 R/B, 19275

Orbit data source: Space-Track

SL-14 R/B, 19275 is space debris in LEO originally from a launch on Tue, 05 Jul 1988 UTC launched from the Plesetsk Missile And Space Complex (PKMTR). Debris objects in space refer to the collection of defunct objects orbiting the Earth. Examples of debris include non-operational satellites, rocket bodies, and fragments generated from explosions, collisions, or faulty payload assembly.

Loading next visibility...
Identifier
19275, 1988-056B
Orbit
LEO
Country
Flag of CISCIS
Related business
Manufacturer
Yuzhnoe
Mission
Spacecraft
Bus & Motor
S5M, Unknown motor
Mass
1,600 kg wet, 1,600 kg dry
Launch date (UTC)
1988-07-05 (37 years ago)
Launch vehicle
Unknown
Launch site
Plesetsk Missile And Space Complex (PKMTR)
Object type
Payload
Rocket body
Debris
Shape & HBR
Cyl, 1.4 m
Radar Cross Section
7.351 m², Large (>1 m²)

Expand to show TLE details & history
Last TLE update: 17 hours ago

TLE from 17 hours ago
0 SL-14 R/B
1 19275U 88056B   25259.06613290  .00000487  00000-0  54292-4 0  9996
2 19275  82.5165  28.6594 0019172   2.3160 357.8141 14.84855539988757
Epoch: 2025-09-16T01:35Z
TLE epoch observation values (Epoch: 2025-09-16T01:35:13.882Z)
Latitude
-0.00001°
Longitude
9.58978°
Altitude
603.681 km
Speed
7.565 km/s
True Right ascension
01h 54m 38s
True Declination
0° 00' 00"
Sunlit
Object was in full shadow at epoch
Visualization orbit readout
Latitude
Unknown
Longitude
Unknown
Altitude
Unknown
Speed
Unknown
Apparent Right ascension
Unknown
Apparent Declination
Unknown
Sunlit
N/A
Visualization observer readout
Local Sidereal Time
11:34:35
Azimuth
Unknown
Elevation
Unknown
Doppler factor
Unknown
Orbital elements
Apogee altitude
624.455 km
Perigee altitude
597.656 km
Semi-major axis
6,989.192 km
Eccentricity
0.00192
Inclination
82.5165°
RAAN
28.6594°
Arg. of periapsis
2.316°
True anomaly
357.8057°
Mean anomaly
357.8141°
Eccentric anomaly
357.8099°
Mean motion
3.71452 °/min
Orbital period
96.92 mins
BSTAR
0.000054292
Loading maneuver chart data...
Computing Atmospheric mass density...
Loading historical data...
Loading historical data...
Loading historical data...
Loading historical data...
Loading historical data...
Loading historical data...
Loading historical data...
Other satellites on launch #56 in the year 1988 (1988-07-05 UTC)

Documentation

Showing up to 5 results
|